Mombasa, Kenya

5:10 PM EAT on August 25, 2016 (GMT +0300)
Moi

Weather History for HKMO - September, 2012

Change the Weather History Date:

Sunday, September 30, 2012

  Actual Average Record
Temperature  
Mean Temperature 80 °F -  
Max Temperature 86 °F 87 °F 88 °F (2013)
Min Temperature 75 °F 70 °F 69 °F (2010)
Cooling Degree Days 16    
Growing Degree Days 30 (Base 50)    
Moisture  
Dew Point 72 °F    
Average Humidity 77    
Maximum Humidity 89    
Minimum Humidity 55    
Precipitation  
Precipitation 0.00 in 0.14 in - ()
Sea Level Pressure  
Sea Level Pressure 29.97 in    
Wind  
Wind Speed 6 mph ()    
Max Wind Speed 14 mph    
Max Gust Speed -    
Visibility 7.3 miles    
Events Rain    
Averages and records for this station are not official NWS values.
T = Trace of Precipitation, MM = Missing Value Source: Averaged Metar Reports

Daily Weather History Graph

Daily Weather History Graph

Search for Another Location

Airport or City:

Trip Planner

Search our weather history database for the weather conditions in past years. The results will help you decide how hot, cold, wet, or windy it might be!

Date:

Astronomy

Sep. 30, 2012 Rise Set
Actual Time 6:07 AM EAT 6:15 PM EAT
Civil Twilight 5:46 AM EAT 6:36 PM EAT
Nautical Twilight 5:22 AM EAT 7:00 PM EAT
Astronomical Twilight 4:58 AM EAT 7:24 PM EAT
Moon 6:29 PM EAT (9/30) 6:02 AM EAT (9/30)
Length of Visible Light 12h 49m
Length of Day
12h 08m
Full, 100% of the Moon is Illuminated
Sep 30
Full
Oct 8
Last Quarter
Oct 15
New
Oct 22
First Quarter
Oct 29
Full

Hourly Weather History & Observations

Time (EAT) Temp. Heat Index Dew Point Humidity Pressure Visibility Wind Dir Wind Speed Gust Speed Precip Events Conditions
12:00 AM 78.8 °F - 73.4 °F 83% 29.98 in 6.2 mi South 4.6 mph - N/A   Mostly Cloudy
1:00 AM 77.0 °F - 73.4 °F 89% 29.95 in 6.2 mi South 5.8 mph - N/A   Scattered Clouds
2:00 AM 77.0 °F - 73.4 °F 89% 29.95 in 6.2 mi South 8.1 mph - N/A   Partly Cloudy
3:00 AM 77.0 °F - 73.4 °F 89% 29.92 in 6.2 mi South 3.5 mph - N/A Rain Light Rain Showers
4:00 AM 77.0 °F - 73.4 °F 89% 29.92 in 6.2 mi South 5.8 mph - N/A   Mostly Cloudy
5:00 AM 77.0 °F - 73.4 °F 89% 29.95 in 6.2 mi SSE 4.6 mph - N/A   Mostly Cloudy
6:00 AM 77.0 °F - 73.4 °F 89% 29.98 in 6.2 mi South 4.6 mph - N/A   Scattered Clouds
7:00 AM 77.0 °F - 73.4 °F 89% 29.98 in 6.2 mi South 3.5 mph - N/A   Scattered Clouds
8:00 AM 78.8 °F - 73.4 °F 83% 30.01 in 6.2 mi SE 5.8 mph - N/A   Mostly Cloudy
9:00 AM 81 °F - 73 °F 70% 30.03 in 19 mi SE 8.1 mph - -   Mostly Cloudy
9:00 AM 80.6 °F 85.4 °F 73.4 °F 79% 30.04 in 6.2 mi SE 8.1 mph - N/A   Scattered Clouds
10:00 AM 82.4 °F 87.2 °F 71.6 °F 70% 30.04 in 6.2 mi SSE 9.2 mph - N/A   Scattered Clouds
11:00 AM 86.0 °F 90.4 °F 69.8 °F 58% 30.04 in 6.2 mi SE 9.2 mph - N/A   Scattered Clouds
12:00 PM 86.0 °F 90.4 °F 69.8 °F 58% 30.01 in 6.2 mi SE 10.4 mph - N/A   Partly Cloudy
1:00 PM 86.0 °F 89.4 °F 68.0 °F 55% 29.98 in 6.2 mi SE 13.8 mph - N/A   Scattered Clouds
3:00 PM 84.2 °F 88.4 °F 69.8 °F 62% 29.92 in 6.2 mi SE 13.8 mph - N/A   Partly Cloudy
4:00 PM 82.4 °F 86.3 °F 69.8 °F 66% 29.92 in 6.2 mi SE 11.5 mph - N/A   Partly Cloudy
5:00 PM 82.4 °F 86.3 °F 69.8 °F 66% 29.92 in 6.2 mi SE 6.9 mph - N/A   Partly Cloudy
6:00 PM 80.6 °F 84.6 °F 71.6 °F 74% 29.92 in 6.2 mi SE 8.1 mph - N/A   Scattered Clouds
7:00 PM 78.8 °F - 71.6 °F 78% 29.95 in 6.2 mi SSE 9.2 mph - N/A   Partly Cloudy
8:00 PM 78.8 °F - 71.6 °F 78% 29.98 in 6.2 mi SSE 8.1 mph - N/A   Partly Cloudy
9:00 PM 78 °F - 72 °F 76% 29.98 in 19 mi SSE 6.9 mph - -   Scattered Clouds
9:00 PM 78.8 °F - 71.6 °F 78% 29.98 in 6.2 mi SSE 6.9 mph - N/A   Partly Cloudy
10:00 PM 78.8 °F - 73.4 °F 83% 30.01 in 6.2 mi SSE 6.9 mph - N/A   Partly Cloudy